Location: ????????
(60.5616°N, 46.8254°E)
Time: 00:27:50
(UTC+00:00)

Cosmos 2297 Rocket - Pass Details

Date: 18 February 2020
Orbit: 838 x 844 km, 71.0° (Epoch: 09 April)

Event Time Altitude Azimuth Distance (km) Brightness Sun altitude
Rises 16:41:25 0° 313° (NW) 3,415 6.4 -21.7°
Reaches altitude 10° 16:43:58 10° 319° (NW) 2,478 5.4 -22.0°
Maximum altitude 16:49:29 49° 34° (NE) 1,084 2.6 -22.6°
Enters shadow 16:50:33 44° 68° (ENE) 1,167 2.5 -22.7°
